Regional Weather Roundup
Issued by NWS Midland/Odessa, TX

Skip options and go directly to product.
Home | Oldest Version | Previous Version | Current Version | All | Graphics & Text | Save Text | Print | Product List | Glossary On

Skip product version selection by date and time.   
782
ASUS44 KMAF 230610
RWRMAF
MIDLAND AREA WEATHER ROUNDUP
NATIONAL WEATHER SERVICE MIDLAND TX
100 AM CDT TUE SEP 23 2014

...IN SOUTHWEST TEXAS AND SOUTHEAST NEW MEXICO...

CITY           SKY/WX    TMP DP  RH WIND       PRES   REMARKS
ALPINE         PTCLDY    62  55  76 CALM      30.31F
ANDREWS        FAIR      67  64  90 E5        30.22F
ARTESIA        NOT AVBL
BIG SPRING     MOCLDY    74  65  74 E9        30.20F
CARLSBAD       CLOUDY    68  50  53 CALM      30.20S
DRYDEN           N/A     73  59  61 CALM      30.14F
FORT STOCKTON  CLEAR     65  57  75 S7        30.19F
GUAD PASS      CLOUDY    62  57  83 NE21        N/A
HOBBS          CLOUDY    66  66 100 E8        30.25S
MARFA          CLOUDY    63  54  72 N3        30.29F
MIDLAND AIRPK  NOT AVBL
MIDLAND INTL   MOCLDY    70  65  84 E7        30.19F
ODESSA         PTCLDY    68  64  87 E7        30.21F
PECOS          PTCLDY    65  60  84 SE5       30.16F
PRESIDIO       FAIR      75  55  49 NE10G16   30.14F
SEMINOLE       MOCLDY    66  63  89 SE5       30.23F
SNYDER         CLOUDY    70  62  74 E7        30.19F
WINK           PTCLDY    70  63  78 E6        30.17F
$$
...OTHER STATIONS IN TEXAS...

CITY           SKY/WX    TMP DP  RH WIND       PRES   REMARKS
ABILENE        MOCLDY    74  55  51 SE12      30.17F
AMARILLO       CLEAR     63  58  83 S10       30.24R
AUSTIN         PTCLDY    74  68  81 N8        30.11R
BROWNSVILLE    CLEAR     78  73  84 CALM      30.02F
CORPUS CHRISTI PTCLDY    76  73  91 N5        30.05S
DALLAS FTW     MOCLDY    71  52  50 E6        30.15S
DEL RIO        PTCLDY    79  64  60 NE6       30.08S
EL PASO        MOCLDY    69  64  84 CALM      30.20F
HOUSTON INT    PTCLDY    73  61  65 NE7       30.09R
LUBBOCK        MOCLDY    65  59  81 SE12      30.20F
SAN ANGELO     CLEAR     74  65  73 SE7       30.16S
SAN ANTONIO    CLEAR     78  69  73 E5        30.10F
WACO           PTCLDY    67  54  63 E3        30.14S
WICHITA FALLS  NOT AVBL
$$
...OTHER LOCATIONS IN NEW MEXICO...

CITY           SKY/WX    TMP DP  RH WIND       PRES   REMARKS
ALAMAGORDO     NOT AVBL
ALBUQUERQUE    MOCLDY    66  61  84 S7        30.28R
CANNON AFB     NOT AVBL
CLOVIS           N/A     63  61  94 S14       30.27F
HOLLOMAN AFB   MOCLDY    67  66  97 NE6       30.22S
ROSWELL        CLOUDY    68  65  90 W5        30.23S
RUIDOSO        FOG       57  57 100 E5        30.40S VSB 1/4
SANTA FE       MOCLDY    61  57  87 S8        30.32S
TRUTH OR CONSE LGT RAIN  67  63  87 SE5       30.25S
TUCUMCARI      CLOUDY    65  61  87 W7        30.21F
$$

USA.gov is the U.S. government's official web portal to all federal, state and local government web resources and services.